{"data":{"norad_id":65240,"intl_designator":"2025-179F","name":"STARLINK-34953","alt_names":[],"object_type":"PAYLOAD","status":"ACTIVE","operator":null,"country":"US","launch_date":"2025-08-18","launch_site_code":"AFWTR","launch_vehicle":null,"mission":null,"orbit_class":"UNKNOWN","rcs_meters":null,"size_class":null,"mass_kg":null,"dimensions":null,"purposes":["comms"],"wikipedia_slug":null,"has_3d_model":false,"image_url":null,"decayed_at":null,"tle_current":{"epoch":"2026-09-20T07:19:02.453664Z","epoch_age_seconds":134430,"freshness":"FRESH","line1":"1 65240U 25179F   26263.30488951  .00014524  00000+0  45116-3 0  9993","line2":"2 65240  97.2856 302.6386 0001646  98.9244 261.2186 15.33457350 61444","mean_motion":15.3345735,"eccentricity":0.0001646,"inclination_deg":97.2856,"raan_deg":302.6386,"arg_perigee_deg":98.9244,"mean_anomaly_deg":261.2186,"bstar":0.00045116,"rev_number":6144,"period_min":93.905448364769,"perigee_km":464.37996610516,"apogee_km":466.63289352225,"semimajor_km":6843.6434298137,"source":"CELESTRAK","updated_at":"2026-09-21T09:00:35.558303Z"}}}